QNT127 UZTT-UAAA

Flight info

Callsign QNT127
Flight time 1h 5m
Altitude 35000
Route TISIB2C TISIB P984 MAMIR L135 LAKEL LAKEL2J
Aircraft A21N/M-SDE3FGHIRWY/LB1

Departure

Time 2026-04-28 13:14
Airport Tashkent International Airport (UZTT)

Arrival

Time 2026-04-28 14:20
Airport Almaty International Airport (UAAA)
Time Latitude Longitude Altitude Speed Heading
2026-04-28 12:56 41.26323 69.27483 1422 ft 0 kts 353°
2026-04-28 13:05 41.26328 69.27482 1422 ft 2 kts 353°
2026-04-28 13:06 41.26353 69.27469 1422 ft 5 kts 315°
2026-04-28 13:06 41.26358 69.27421 1422 ft 7 kts 265°
2026-04-28 13:06 41.26354 69.27344 1422 ft 9 kts 265°
2026-04-28 13:06 41.26342 69.27245 1422 ft 12 kts 261°
2026-04-28 13:07 41.26328 69.27108 1422 ft 16 kts 262°
2026-04-28 13:07 41.26279 69.26997 1422 ft 14 kts 176°
2026-04-28 13:07 41.26208 69.27079 1422 ft 14 kts 138°
2026-04-28 13:07 41.26126 69.27173 1422 ft 16 kts 139°
2026-04-28 13:08 41.26068 69.27290 1422 ft 15 kts 75°
2026-04-28 13:08 41.26086 69.27425 1422 ft 14 kts 83°
2026-04-28 13:08 41.26096 69.27560 1422 ft 14 kts 83°
2026-04-28 13:08 41.26114 69.27697 1422 ft 16 kts 80°
2026-04-28 13:09 41.26134 69.27868 1422 ft 20 kts 81°
2026-04-28 13:09 41.26155 69.28059 1422 ft 21 kts 81°
2026-04-28 13:09 41.26177 69.28255 1422 ft 21 kts 81°
2026-04-28 13:09 41.26192 69.28451 1422 ft 21 kts 91°
2026-04-28 13:10 41.26185 69.28649 1422 ft 20 kts 97°
2026-04-28 13:10 41.26104 69.28792 1422 ft 19 kts 135°
2026-04-28 13:10 41.26004 69.28909 1422 ft 18 kts 140°
2026-04-28 13:10 41.25930 69.29006 1422 ft 15 kts 78°
2026-04-28 13:11 41.25954 69.29178 1422 ft 26 kts 80°
2026-04-28 13:11 41.25990 69.29461 1422 ft 32 kts 81°
2026-04-28 13:11 41.26024 69.29748 1423 ft 30 kts 80°
2026-04-28 13:11 41.26055 69.30014 1423 ft 28 kts 84°
2026-04-28 13:12 41.26081 69.30263 1423 ft 26 kts 80°
2026-04-28 13:12 41.26158 69.30364 1423 ft 12 kts 37°
2026-04-28 13:12 41.26156 69.30434 1423 ft 8 kts 161°
2026-04-28 13:12 41.26106 69.30400 1423 ft 10 kts 234°
2026-04-28 13:13 41.26090 69.30331 1423 ft 0 kts 261°
2026-04-28 13:13 41.26087 69.30303 1423 ft 20 kts 261°
2026-04-28 13:13 41.26033 69.29804 1423 ft 87 kts 261°
2026-04-28 13:13 41.25915 69.28744 1422 ft 143 kts 261°
2026-04-28 13:14 41.25747 69.27230 1502 ft 179 kts 263°
2026-04-28 13:14 41.25572 69.25590 1999 ft 181 kts 263°
2026-04-28 13:14 41.25391 69.23910 2488 ft 188 kts 264°
2026-04-28 13:14 41.25211 69.22192 3044 ft 193 kts 264°
2026-04-28 13:15 41.25015 69.20389 3455 ft 202 kts 264°
2026-04-28 13:15 41.24807 69.18497 3758 ft 216 kts 264°
2026-04-28 13:15 41.24579 69.16462 4082 ft 231 kts 263°
2026-04-28 13:15 41.24327 69.14236 4348 ft 252 kts 263°
2026-04-28 13:16 41.24004 69.11936 4905 ft 260 kts 252°
2026-04-28 13:16 41.22972 69.09967 5554 ft 267 kts 217°
2026-04-28 13:16 41.21279 69.09010 6114 ft 275 kts 186°
2026-04-28 13:16 41.19327 69.09212 6577 ft 287 kts 169°
2026-04-28 13:17 41.17357 69.09655 6906 ft 290 kts 170°
2026-04-28 13:17 41.15362 69.10051 6958 ft 289 kts 171°
2026-04-28 13:17 41.13369 69.10414 6986 ft 289 kts 172°
2026-04-28 13:17 41.11374 69.10764 6997 ft 289 kts 172°
2026-04-28 13:18 41.09394 69.11107 6999 ft 288 kts 172°
2026-04-28 13:18 41.07402 69.11465 7004 ft 288 kts 169°
2026-04-28 13:18 41.05574 69.12460 6987 ft 286 kts 140°
2026-04-28 13:18 41.04378 69.14516 7017 ft 286 kts 110°
2026-04-28 13:19 41.04067 69.17114 7395 ft 291 kts 83°
2026-04-28 13:19 41.04384 69.19707 8285 ft 288 kts 79°
2026-04-28 13:19 41.04709 69.22317 9079 ft 290 kts 80°
2026-04-28 13:19 41.05083 69.24937 9798 ft 293 kts 76°
2026-04-28 13:20 41.05555 69.27534 10474 ft 298 kts 75°
2026-04-28 13:20 41.06073 69.30267 10871 ft 313 kts 75°
2026-04-28 13:20 41.06613 69.33154 11188 ft 331 kts 75°
2026-04-28 13:20 41.07170 69.36181 11536 ft 347 kts 75°
2026-04-28 13:21 41.07735 69.39293 12130 ft 353 kts 76°
2026-04-28 13:21 41.08308 69.42466 12834 ft 356 kts 76°
2026-04-28 13:21 41.08877 69.45627 13500 ft 359 kts 76°
2026-04-28 13:21 41.09459 69.48880 14164 ft 363 kts 76°
2026-04-28 13:22 41.10035 69.52115 14788 ft 367 kts 76°
2026-04-28 13:22 41.10616 69.55385 15433 ft 370 kts 76°
2026-04-28 13:22 41.11208 69.58718 16081 ft 372 kts 76°
2026-04-28 13:22 41.11797 69.62048 16687 ft 376 kts 76°
2026-04-28 13:23 41.12393 69.65415 17267 ft 380 kts 76°
2026-04-28 13:23 41.13002 69.68864 17870 ft 383 kts 76°
2026-04-28 13:23 41.13603 69.72260 18452 ft 386 kts 76°
2026-04-28 13:23 41.14216 69.75741 19018 ft 389 kts 76°
2026-04-28 13:24 41.14831 69.79243 19558 ft 393 kts 76°
2026-04-28 13:24 41.15453 69.82789 20096 ft 396 kts 77°
2026-04-28 13:24 41.16071 69.86317 20636 ft 399 kts 77°
2026-04-28 13:24 41.16702 69.89932 21147 ft 402 kts 77°
2026-04-28 13:25 41.17330 69.93536 21655 ft 405 kts 77°
2026-04-28 13:25 41.17967 69.97204 22152 ft 408 kts 77°
2026-04-28 13:25 41.18605 70.00875 22626 ft 411 kts 77°
2026-04-28 13:25 41.19237 70.04532 23079 ft 415 kts 77°
2026-04-28 13:26 41.19890 70.08308 23523 ft 418 kts 77°
2026-04-28 13:26 41.20536 70.12047 23931 ft 422 kts 77°
2026-04-28 13:26 41.21193 70.15857 24352 ft 426 kts 77°
2026-04-28 13:26 41.21852 70.19694 24779 ft 428 kts 77°
2026-04-28 13:27 41.22514 70.23552 25129 ft 433 kts 77°
2026-04-28 13:27 41.23179 70.27445 25450 ft 437 kts 77°
2026-04-28 13:27 41.23856 70.31413 25811 ft 440 kts 77°
2026-04-28 13:27 41.24523 70.35337 26175 ft 443 kts 77°
2026-04-28 13:28 41.25206 70.39355 26484 ft 447 kts 78°
2026-04-28 13:28 41.25885 70.43361 26794 ft 450 kts 77°
2026-04-28 13:28 41.26573 70.47437 27119 ft 453 kts 78°
2026-04-28 13:28 41.27260 70.51508 27421 ft 456 kts 78°
2026-04-28 13:29 41.27958 70.55651 27724 ft 459 kts 77°
2026-04-28 13:29 41.28656 70.59805 28036 ft 462 kts 78°
2026-04-28 13:29 41.29347 70.63921 28298 ft 465 kts 78°
2026-04-28 13:29 41.30049 70.68122 28538 ft 468 kts 78°
2026-04-28 13:30 41.30757 70.72372 28798 ft 471 kts 79°
2026-04-28 13:30 41.31466 70.76636 29049 ft 473 kts 79°
2026-04-28 13:30 41.32170 70.80876 29319 ft 476 kts 79°
2026-04-28 13:30 41.32878 70.85158 29644 ft 476 kts 79°
2026-04-28 13:31 41.34292 70.93722 30314 ft 477 kts 79°
2026-04-28 13:31 41.34999 70.98024 30656 ft 476 kts 79°
2026-04-28 13:31 41.35705 71.02330 30958 ft 477 kts 79°
2026-04-28 13:32 41.36408 71.06632 31230 ft 478 kts 79°
2026-04-28 13:32 41.37112 71.10958 31495 ft 479 kts 79°
2026-04-28 13:32 41.37812 71.15251 31784 ft 480 kts 79°
2026-04-28 13:32 41.38511 71.19566 32050 ft 480 kts 79°
2026-04-28 13:33 41.39216 71.23922 32355 ft 480 kts 80°
2026-04-28 13:33 41.39917 71.28271 32615 ft 481 kts 79°
2026-04-28 13:33 41.40705 71.32555 32869 ft 482 kts 76°
2026-04-28 13:33 41.41701 71.36853 33146 ft 483 kts 72°
2026-04-28 13:34 41.42828 71.41045 33391 ft 484 kts 71°
2026-04-28 13:34 41.43993 71.45239 33598 ft 485 kts 71°
2026-04-28 13:34 41.45158 71.49402 33783 ft 486 kts 71°
2026-04-28 13:34 41.46343 71.53662 33971 ft 488 kts 71°
2026-04-28 13:35 41.47505 71.57868 34120 ft 489 kts 71°
2026-04-28 13:35 41.48675 71.62118 34267 ft 490 kts 71°
2026-04-28 13:35 41.49845 71.66390 34449 ft 491 kts 71°
2026-04-28 13:35 41.51001 71.70612 34617 ft 491 kts 71°
2026-04-28 13:36 41.52164 71.74871 34803 ft 491 kts 71°
2026-04-28 13:36 41.53331 71.79153 34947 ft 491 kts 71°
2026-04-28 13:36 41.54487 71.83405 35076 ft 492 kts 71°
2026-04-28 13:36 41.55658 71.87714 35198 ft 493 kts 71°
2026-04-28 13:37 41.57978 71.96272 35221 ft 493 kts 71°
2026-04-28 13:37 41.60309 72.04912 35244 ft 494 kts 71°
2026-04-28 13:38 41.62622 72.13509 35238 ft 495 kts 71°
2026-04-28 13:38 41.64930 72.22111 35240 ft 496 kts 71°
2026-04-28 13:39 41.67244 72.30778 35258 ft 495 kts 71°
2026-04-28 13:39 41.69548 72.39439 35255 ft 495 kts 71°
2026-04-28 13:40 41.71836 72.48061 35248 ft 496 kts 71°
2026-04-28 13:40 41.74129 72.56739 35236 ft 497 kts 71°
2026-04-28 13:41 41.76425 72.65460 35234 ft 497 kts 72°
2026-04-28 13:41 41.78706 72.74149 35212 ft 499 kts 72°
2026-04-28 13:42 41.80994 72.82904 35218 ft 499 kts 72°
2026-04-28 13:42 41.83287 72.91718 35229 ft 501 kts 71°
2026-04-28 13:43 41.85555 73.00445 35242 ft 501 kts 71°
2026-04-28 13:43 41.87837 73.09247 35263 ft 501 kts 72°
2026-04-28 13:44 41.90114 73.18086 35277 ft 502 kts 71°
2026-04-28 13:44 41.92388 73.26937 35289 ft 502 kts 71°
2026-04-28 13:45 41.94655 73.35786 35326 ft 504 kts 71°
2026-04-28 13:45 41.96905 73.44620 35348 ft 504 kts 71°
2026-04-28 13:46 41.99160 73.53491 35368 ft 505 kts 71°
2026-04-28 13:46 42.01427 73.62451 35380 ft 505 kts 71°
2026-04-28 13:47 42.03678 73.71384 35377 ft 505 kts 72°
2026-04-28 13:47 42.05954 73.80306 35385 ft 506 kts 70°
2026-04-28 13:48 42.08355 73.89151 35379 ft 507 kts 70°
2026-04-28 13:48 42.10762 73.98029 35366 ft 507 kts 70°
2026-04-28 13:49 42.13160 74.06947 35366 ft 507 kts 70°
2026-04-28 13:49 42.15547 74.15866 35370 ft 508 kts 70°
2026-04-28 13:50 42.17926 74.24804 35367 ft 508 kts 70°
2026-04-28 13:50 42.20290 74.33722 35364 ft 508 kts 70°
2026-04-28 13:51 42.22661 74.42702 35341 ft 508 kts 70°
2026-04-28 13:51 42.25013 74.51638 35344 ft 509 kts 70°
2026-04-28 13:52 42.27372 74.60632 35347 ft 508 kts 69°
2026-04-28 13:52 42.29718 74.69617 35345 ft 508 kts 70°
2026-04-28 13:53 42.32050 74.78577 35349 ft 509 kts 70°
2026-04-28 13:53 42.34381 74.87558 35336 ft 508 kts 70°
2026-04-28 13:54 42.36672 74.96431 35330 ft 509 kts 70°
2026-04-28 13:54 42.38991 75.05447 35329 ft 509 kts 70°
2026-04-28 13:55 42.41299 75.14462 35326 ft 510 kts 70°
2026-04-28 13:55 42.43872 75.23349 35327 ft 508 kts 64°
2026-04-28 13:56 42.46892 75.31997 35328 ft 508 kts 62°
2026-04-28 13:56 42.48407 75.36269 35105 ft 508 kts 62°
2026-04-28 13:56 42.49921 75.40565 34456 ft 511 kts 63°
2026-04-28 13:57 42.51450 75.44933 33841 ft 509 kts 62°
2026-04-28 13:57 42.52933 75.49193 33589 ft 500 kts 62°
2026-04-28 13:57 42.54407 75.53436 33342 ft 499 kts 62°
2026-04-28 13:57 42.55892 75.57722 33088 ft 498 kts 62°
2026-04-28 13:58 42.57350 75.61929 32836 ft 496 kts 62°
2026-04-28 13:58 42.58800 75.66121 32580 ft 496 kts 63°
2026-04-28 13:58 42.60255 75.70332 32325 ft 494 kts 63°
2026-04-28 13:58 42.61703 75.74526 31952 ft 493 kts 63°
2026-04-28 13:59 42.63145 75.78723 31467 ft 492 kts 63°
2026-04-28 13:59 42.64599 75.82954 30875 ft 491 kts 63°
2026-04-28 13:59 42.66024 75.87103 30251 ft 489 kts 63°
2026-04-28 13:59 42.67449 75.91266 29796 ft 483 kts 63°
2026-04-28 14:00 42.68849 75.95362 29358 ft 477 kts 63°
2026-04-28 14:00 42.70226 75.99397 28920 ft 471 kts 63°
2026-04-28 14:00 42.71586 76.03391 28484 ft 465 kts 63°
2026-04-28 14:00 42.72932 76.07350 28031 ft 461 kts 63°
2026-04-28 14:01 42.74263 76.11267 27565 ft 456 kts 63°
2026-04-28 14:01 42.75579 76.15137 27115 ft 452 kts 63°
2026-04-28 14:01 42.76892 76.19010 26692 ft 447 kts 63°
2026-04-28 14:01 42.78169 76.22781 26260 ft 442 kts 63°
2026-04-28 14:02 42.79449 76.26569 25807 ft 438 kts 63°
2026-04-28 14:02 42.80707 76.30293 25372 ft 434 kts 63°
2026-04-28 14:02 42.81961 76.34011 24931 ft 431 kts 63°
2026-04-28 14:02 42.83209 76.37718 24479 ft 427 kts 63°
2026-04-28 14:03 42.84429 76.41344 24040 ft 424 kts 63°
2026-04-28 14:03 42.85648 76.44978 23606 ft 421 kts 63°
2026-04-28 14:03 42.86863 76.48605 23157 ft 417 kts 62°
2026-04-28 14:03 42.88053 76.52159 22727 ft 414 kts 62°
2026-04-28 14:04 42.89231 76.55679 22298 ft 411 kts 62°
2026-04-28 14:04 42.90528 76.59160 21841 ft 406 kts 54°
2026-04-28 14:04 42.92222 76.62120 21398 ft 398 kts 43°
2026-04-28 14:04 42.94288 76.64562 20957 ft 392 kts 34°
2026-04-28 14:05 42.96482 76.66784 20504 ft 389 kts 33°
2026-04-28 14:05 42.98660 76.68944 20062 ft 387 kts 33°
2026-04-28 14:05 43.00818 76.71095 19618 ft 384 kts 34°
2026-04-28 14:05 43.02953 76.73241 19377 ft 381 kts 34°
2026-04-28 14:06 43.05080 76.75393 19364 ft 382 kts 34°
2026-04-28 14:06 43.07207 76.77551 19268 ft 379 kts 34°
2026-04-28 14:06 43.09303 76.79684 18826 ft 377 kts 34°
2026-04-28 14:06 43.11385 76.81805 18292 ft 375 kts 34°
2026-04-28 14:07 43.13464 76.83928 18041 ft 365 kts 34°
2026-04-28 14:07 43.15450 76.85962 17842 ft 354 kts 34°
2026-04-28 14:07 43.17394 76.87953 17629 ft 344 kts 34°
2026-04-28 14:07 43.19289 76.89892 17425 ft 334 kts 34°
2026-04-28 14:08 43.21103 76.91836 17201 ft 326 kts 42°
2026-04-28 14:08 43.22313 76.94388 17006 ft 322 kts 71°
2026-04-28 14:08 43.22494 76.97357 16815 ft 316 kts 99°
2026-04-28 14:08 43.21714 77.00113 16591 ft 308 kts 126°
2026-04-28 14:09 43.20207 77.02101 16224 ft 304 kts 151°
2026-04-28 14:09 43.18221 77.03038 15818 ft 299 kts 176°
2026-04-28 14:09 43.16187 77.02768 15469 ft 293 kts 201°
2026-04-28 14:09 43.14440 77.01425 15096 ft 287 kts 224°
2026-04-28 14:10 43.13261 76.99314 14692 ft 283 kts 247°
2026-04-28 14:10 43.12775 76.96718 14288 ft 280 kts 270°
2026-04-28 14:10 43.13061 76.94118 13885 ft 278 kts 292°
2026-04-28 14:10 43.14034 76.91908 13459 ft 276 kts 314°
2026-04-28 14:11 43.15578 76.90353 13028 ft 274 kts 337°
2026-04-28 14:11 43.17409 76.89738 12624 ft 272 kts 359°
2026-04-28 14:11 43.19246 76.90115 12222 ft 271 kts 20°
2026-04-28 14:11 43.20890 76.91400 11844 ft 270 kts 35°
2026-04-28 14:12 43.22515 76.92623 11438 ft 268 kts 13°
2026-04-28 14:12 43.24345 76.92519 11008 ft 268 kts 338°
2026-04-28 14:12 43.25839 76.91063 10677 ft 267 kts 315°
2026-04-28 14:12 43.27199 76.89365 10459 ft 265 kts 330°
2026-04-28 14:13 43.28879 76.88331 10249 ft 266 kts 339°
2026-04-28 14:13 43.30598 76.87424 9935 ft 265 kts 341°
2026-04-28 14:13 43.32332 76.86610 9564 ft 265 kts 342°
2026-04-28 14:13 43.33981 76.85436 9096 ft 270 kts 316°
2026-04-28 14:14 43.34890 76.83224 8761 ft 269 kts 281°
2026-04-28 14:14 43.34729 76.80738 8430 ft 268 kts 246°
2026-04-28 14:14 43.33711 76.78625 8079 ft 266 kts 232°
2026-04-28 14:14 43.32573 76.76631 7726 ft 264 kts 229°
2026-04-28 14:15 43.31117 76.75178 7310 ft 264 kts 196°
2026-04-28 14:15 43.29321 76.75128 6942 ft 260 kts 160°
2026-04-28 14:15 43.27772 76.76360 6568 ft 257 kts 141°
2026-04-28 14:15 43.26391 76.77883 6209 ft 258 kts 137°
2026-04-28 14:16 43.25342 76.79851 5791 ft 256 kts 105°
2026-04-28 14:16 43.25191 76.82219 5442 ft 252 kts 87°
2026-04-28 14:16 43.25511 76.84561 5039 ft 248 kts 64°
2026-04-28 14:16 43.26414 76.86504 4724 ft 237 kts 52°
2026-04-28 14:17 43.27400 76.88239 4449 ft 226 kts 53°
2026-04-28 14:17 43.28287 76.89910 4265 ft 208 kts 55°
2026-04-28 14:17 43.29073 76.91487 3999 ft 190 kts 56°
2026-04-28 14:17 43.29768 76.92908 3733 ft 174 kts 56°
2026-04-28 14:18 43.30410 76.94218 3461 ft 159 kts 56°
2026-04-28 14:18 43.31014 76.95439 3218 ft 151 kts 55°
2026-04-28 14:18 43.31606 76.96625 3019 ft 150 kts 56°
2026-04-28 14:18 43.32169 76.97828 2891 ft 150 kts 57°
2026-04-28 14:19 43.32740 76.99011 2783 ft 150 kts 55°
2026-04-28 14:19 43.33336 77.00178 2588 ft 150 kts 55°
2026-04-28 14:19 43.33924 77.01343 2368 ft 148 kts 56°
2026-04-28 14:19 43.34490 77.02497 2243 ft 138 kts 56°
2026-04-28 14:20 43.34953 77.03421 2237 ft 91 kts 57°
2026-04-28 14:20 43.35213 77.03945 2244 ft 41 kts 55°
2026-04-28 14:20 43.35328 77.04180 2245 ft 26 kts 56°
2026-04-28 14:20 43.35426 77.04373 2247 ft 22 kts 39°
2026-04-28 14:21 43.35498 77.04443 2247 ft 8 kts 109°
2026-04-28 14:21 43.35452 77.04436 2248 ft 8 kts 231°
2026-04-28 14:21 43.35415 77.04360 2247 ft 10 kts 236°
2026-04-28 14:21 43.35367 77.04263 2246 ft 13 kts 235°
2026-04-28 14:22 43.35310 77.04150 2245 ft 15 kts 237°
2026-04-28 14:22 43.35246 77.04016 2243 ft 17 kts 237°
2026-04-28 14:22 43.35173 77.03865 2242 ft 20 kts 236°
2026-04-28 14:22 43.35088 77.03695 2242 ft 22 kts 235°
2026-04-28 14:23 43.34991 77.03497 2238 ft 27 kts 236°
2026-04-28 14:23 43.34879 77.03271 2237 ft 28 kts 236°
2026-04-28 14:23 43.34800 77.03037 2238 ft 25 kts 256°
2026-04-28 14:23 43.34781 77.02795 2236 ft 24 kts 268°
2026-04-28 14:24 43.34771 77.02565 2235 ft 23 kts 268°
2026-04-28 14:24 43.34780 77.02344 2234 ft 22 kts 274°
2026-04-28 14:24 43.34789 77.02125 2231 ft 23 kts 274°
2026-04-28 14:24 43.34800 77.01910 2230 ft 22 kts 274°
2026-04-28 14:25 43.34810 77.01705 2230 ft 21 kts 274°
2026-04-28 14:25 43.34821 77.01546 2229 ft 12 kts 288°
2026-04-28 14:25 43.34889 77.01495 2228 ft 12 kts 337°
2026-04-28 14:25 43.34970 77.01442 2226 ft 13 kts 332°
2026-04-28 14:26 43.34988 77.01347 2225 ft 9 kts 236°
2026-04-28 14:26 43.34973 77.01311 2226 ft 0 kts 245°
2026-04-28 14:26 43.34969 77.01301 2226 ft 1 kts 244°
2026-04-28 14:26 43.34968 77.01297 2226 ft 0 kts 244°